This demonstration page uses our WeatherBlox Daily Observations layout. Learn more.

Left ArrowRight Arrow

Hourly Observations for July 31, 2020

Temp ( °F °C ) Dew Point ( °F °C ) Humidity (%) Winds ( mph kmh ) Pressure ( in mb ) Visibility ( mi km ) Precip ( " mm )
12:54 am 00:54 Clear 66 18.9 59 15 78 78 N 9 15 30.02 1017 10 16.0934 0 0
1:54 am 01:54 Clear 64 17.8 59 15 84 84 N 8 13 30.02 1017 10 16.0934 0 0
2:54 am 02:54 Clear 64 17.8 59 15 84 84 NNW 8 13 30.02 1017 10 16.0934 0 0
3:54 am 03:54 Clear 65 18.3 58 14.4 78 78 NNW 8 13 30.01 1016 10 16.0934 0 0
4:54 am 04:54 Clear 63 17.2 57 13.9 81 81 NNW 9 15 30.01 1016 10 16.0934 0 0
5:54 am 05:54 Clear 63 17.2 57 13.9 81 81 NNW 12 19 30.01 1016 10 16.0934 0 0
6:54 am 06:54 Mostly Sunny 62 16.7 57 13.9 84 84 NNW 9 15 30.04 1017 9 14.48406 0 0
7:54 am 07:54 Mostly Cloudy 66 18.9 58 14.4 75 75 N 7 11 30.04 1017 9 14.48406 0 0
8:54 am 08:54 Sunny 69 20.6 59 15 70 70 N 10 17 30.05 1018 9 14.48406 0 0
9:54 am 09:54 Sunny 71 21.7 59 15 66 66 NNE 9 15 30.05 1018 10 16.0934 0 0
10:54 am 10:54 Sunny 75 23.9 62 16.7 64 64 NE 9 15 30.04 1017 9 14.48406 0 0
11:54 am 11:54 Sunny 77 25 63 17.2 62 62 NE 10 17 30.04 1017 9 14.48406 0 0
12:54 pm 12:54 Mostly Cloudy 77 25 62 16.7 60 60 N 10 17 30.03 1017 9 14.48406 0 0
1:54 pm 13:54 Partly Cloudy 80 26.7 62 16.7 54 54 NNE 8 13 30.03 1017 10 16.0934 0 0
2:54 pm 14:54 Mostly Sunny 81 27.2 62 16.7 53 53 N 10 17 30.02 1017 10 16.0934 0 0
3:54 pm 15:54 Mostly Sunny 82 27.8 61 16.1 49 49 NNE 9 15 30.01 1016 10 16.0934 0 0
4:54 pm 16:54 Sunny 82 27.8 60 15.6 47 47 N 12 19 30.01 1016 10 16.0934 0 0
5:54 pm 17:54 Sunny 81 27.2 59 15 47 47 N 8 13 30 1016 10 16.0934 0 0
6:54 pm 18:54 Sunny 79 26.1 58 14.4 49 49 N 13 20 29.99 1016 10 16.0934 0 0
7:54 pm 19:54 Sunny 76 24.4 59 15 56 56 N 8 13 29.98 1015 10 16.0934 0 0
8:54 pm 20:54 Clear 71 21.7 59 15 66 66 N 5 7 29.98 1015 10 16.0934 0 0
9:54 pm 21:54 Clear 71 21.7 60 15.6 68 68 NW 6 9 30 1016 10 16.0934 0 0
10:54 pm 22:54 Clear 66 18.9 60 15.6 81 81 NNW 6 9 30.01 1016 10 16.0934 0 0
11:54 pm 23:54 Clear 63 17.2 59 15 87 87 N 5 7 30.01 1016 10 16.0934 0 0

Powered by AerisWeather